This is the latest recevied weather packets stored in our database for station/object YG1CIC-13. If no packets are shown the sender has not sent any weather packets the latest 10 day(s).
| Time | Temp. | Humidity | Pressure | Rain* | Wind** | Luminosity | Snow |
|---|---|---|---|---|---|---|---|
| 1777363453 | 34.44° C | 71% | - | 0 mm | - | - | - |
| 1777362852 | 35° C | 70% | - | 0 mm | - | - | - |
| 1777362252 | 34.44° C | 72% | - | 0 mm | - | - | - |
| 1777361658 | 35° C | 69% | - | 0 mm | - | - | - |
| 1777361051 | 35° C | 70% | - | 0 mm | - | - | - |
| 1777360450 | 35.56° C | 70% | - | 0 mm | - | - | - |
| 1777359849 | 35° C | 69% | - | 0 mm | - | - | - |
| 1777359249 | 35° C | 69% | - | 0 mm | - | - | - |
| 1777358648 | 35.56° C | 68% | - | 0 mm | - | - | - |
| 1777358048 | 35.56° C | 67% | - | 0 mm | - | - | - |
| 1777356847 | 35.56° C | 64% | - | 0 mm | - | - | - |
| 1777356246 | 35.56° C | 65% | - | 0 mm | - | - | - |
| 1777355646 | 34.44° C | 64% | - | 0 mm | - | - | - |
| 1777355045 | 34.44° C | 66% | - | 0 mm | - | - | - |
| 1777354444 | 34.44° C | 66% | - | 0 mm | - | - | - |
| 1777353844 | 36.11° C | 63% | - | 0 mm | - | - | - |
| 1777353243 | 35° C | 66% | - | 0 mm | - | - | - |
| 1777352643 | 35° C | 66% | - | 0 mm | - | - | - |
| 1777352042 | 34.44° C | 67% | - | 0 mm | - | - | - |
| 1777351442 | 34.44° C | 70% | - | 0 mm | - | - | - |
| 1777350841 | 33.89° C | 69% | - | 0 mm | - | - | - |
| 1777350240 | 33.89° C | 71% | - | 0 mm | - | - | - |
| 1777349640 | 33.89° C | 70% | - | 0 mm | - | - | - |
| 1777349039 | 33.33° C | 71% | - | 0 mm | - | - | - |
| 1777348439 | 34.44° C | 70% | - | 0 mm | - | - | - |
* Rain latest hour (hover to see other rain measurements)
** Current wind speed in m/s (hover to see current wind gust speed)